LX1CU-13 Weather Reports


time (UTC)temp
F
wind
direction
speed
knots
gust
knots
rain 1hr
in
rain 24hr
in
rain mn
in
humidity
%
barometer
mb
20260506044331 51 270 0.0 0.0 0.00 0.00 0.00 92 1001.3
20260506043831 51 270 0.0 0.0 0.00 0.00 0.00 92 1001.3
20260506043331 51 270 0.0 0.0 0.00 0.00 0.00 92 1001.2
20260506042831 51 270 0.0 0.0 0.00 0.00 0.00 92 1001.2
20260506042331 51 270 0.0 0.0 0.00 0.00 0.00 92 1001.3
20260506041831 51 270 0.0 0.0 0.00 0.00 0.00 92 1001.2
20260506041331 51 270 0.0 0.0 0.00 0.00 0.00 92 1001.3
20260506040831 51 270 0.0 0.0 0.00 0.00 0.00 92 1001.4
20260506040331 51 270 0.0 0.0 0.00 0.00 0.00 92 1001.4
20260506035831 51 270 0.0 0.0 0.00 0.00 0.00 92 1001.4
20260506035331 51 270 0.0 0.0 0.00 0.00 0.00 92 1001.4
20260506034831 51 270 0.0 0.0 0.00 0.00 0.00 92 1001.4
20260506034331 51 270 0.0 0.0 0.00 0.00 0.00 92 1001.4
20260506033831 51 270 0.0 0.0 0.00 0.00 0.00 92 1001.4
20260506033331 51 270 0.0 0.0 0.00 0.00 0.00 92 1001.4
20260506032831 51 270 0.0 0.0 0.00 0.00 0.00 92 1001.4
20260506032331 52 270 0.0 0.0 0.00 0.00 0.00 92 1001.4
20260506031831 52 270 0.0 0.0 0.00 0.00 0.00 92 1001.4
20260506031331 52 270 0.0 0.0 0.00 0.00 0.00 92 1001.4
20260506031003 52 270 0.0 0.0 0.00 0.00 0.00 92 1001.4
20260506030331 52 270 0.0 0.0 0.00 0.00 0.00 92 1001.4
20260506025831 52 270 0.0 0.0 0.00 0.00 0.00 92 1001.4
20260506025331 52 270 0.0 0.0 0.00 0.00 0.00 92 1001.4
20260506024831 52 270 0.0 0.0 0.00 0.00 0.00 92 1001.3
20260506024331 52 270 0.0 0.0 0.00 0.00 0.00 92 1001.4
20260506023831 52 270 0.0 0.0 0.00 0.00 0.00 92 1001.3
20260506023331 52 270 0.0 0.0 0.00 0.00 0.00 92 1001.3
20260506022831 52 270 0.0 0.0 0.00 0.00 0.00 92 1001.3
20260506022331 52 292 0.0 0.0 0.00 0.00 0.00 92 1001.3
20260506021831 52 270 0.0 0.0 0.00 0.00 0.00 92 1001.3
20260506021331 52 67 0.0 0.0 0.00 0.00 0.00 92 1001.3
20260506021010 52 67 0.0 0.0 0.00 0.00 0.00 91 1001.3
20260506020331 52 67 0.0 0.0 0.00 0.00 0.00 91 1001.3
20260506015831 52 67 0.0 0.0 0.00 0.00 0.00 91 1001.4
20260506015331 52 90 0.0 0.0 0.00 0.00 0.00 91 1001.4
20260506014831 52 90 0.0 0.0 0.00 0.00 0.00 91 1001.4
20260506014331 52 90 0.0 0.0 0.00 0.00 0.00 92 1001.4
20260506013831 52 112 0.0 0.0 0.00 0.00 0.00 92 1001.5
20260506013331 52 90 0.0 0.0 0.00 0.00 0.00 92 1001.4
20260506012831 53 90 0.0 0.0 0.00 0.00 0.00 92 1001.5
20260506012331 53 90 0.0 0.0 0.00 0.00 0.00 92 1001.5
20260506011831 53 90 0.0 0.0 0.00 0.00 0.00 92 1001.7
20260506011331 53 90 0.0 0.0 0.00 0.00 0.00 92 1001.6
20260506010831 53 112 0.0 0.0 0.00 0.00 0.00 92 1001.7
20260506010331 53 135 0.0 0.0 0.00 0.00 0.00 92 1001.7
20260506005831 53 135 0.0 0.0 0.00 0.00 0.00 92 1001.6
20260506005331 53 135 0.0 0.0 0.00 0.00 0.00 92 1001.7
20260506004831 53 135 0.0 0.0 0.00 0.00 0.00 92 1001.7
20260506004331 53 135 0.0 0.0 0.00 0.00 0.00 92 1001.8
20260506003831 53 135 0.0 0.0 0.00 0.00 0.00 92 1001.8
20260506003331 53 112 0.0 0.0 0.00 0.00 0.00 92 1001.9
20260506002831 53 112 0.0 0.0 0.00 0.00 0.00 92 1001.8
20260506002331 53 112 0.0 0.0 0.00 0.00 0.00 92 1001.9
20260506001831 53 112 0.0 0.0 0.00 0.00 0.00 92 1001.9
20260506001331 53 112 0.0 0.0 0.00 0.00 0.00 92 1002.0
20260506000831 53 112 0.0 0.0 0.00 0.00 0.00 92 1002.0
20260506000331 53 112 0.0 0.0 0.00 0.00 0.00 92 1002.1
20260505235831 53 112 0.0 0.0 0.00 0.00 0.00 92 1002.2
20260505235331 53 112 0.0 0.0 0.00 0.00 0.00 92 1002.2
20260505234832 53 112 0.0 0.0 0.00 0.00 0.00 92 1002.2
20260505234331 53 112 0.0 0.0 0.00 0.00 0.00 92 1002.3
20260505233831 53 112 0.0 0.0 0.00 0.00 0.00 91 1002.3
20260505233331 53 112 0.0 0.0 0.00 0.00 0.00 91 1002.3
20260505232831 53 112 0.0 0.0 0.00 0.00 0.00 91 1002.4
20260505232331 53 112 0.0 0.0 0.00 0.00 0.00 91 1002.3
20260505231831 53 112 0.0 0.0 0.00 0.00 0.00 91 1002.4
20260505231331 53 112 0.0 0.0 0.00 0.00 0.00 91 1002.4
20260505230831 53 112 0.0 0.0 0.00 0.00 0.00 91 1002.4
20260505230331 53 112 0.0 0.0 0.00 0.00 0.00 91 1002.5
20260505225831 53 112 0.0 0.0 0.00 0.00 0.00 91 1002.4
20260505225331 53 112 0.0 0.0 0.00 0.00 0.00 91 1002.4
20260505224831 53 112 0.0 0.0 0.00 0.00 0.00 91 1002.5
20260505224331 53 112 0.0 0.0 0.00 0.00 0.00 91 1002.6
20260505223831 53 135 0.0 0.0 0.00 0.00 0.00 91 1002.5
20260505223331 53 157 0.0 0.0 0.00 0.00 0.00 91 1002.6
20260505222831 53 225 0.0 0.0 0.00 0.00 0.00 91 1002.6
20260505222331 53 225 0.0 0.0 0.00 0.00 0.00 91 1002.6
20260505221831 53 225 0.0 0.0 0.00 0.00 0.00 91 1002.7
20260505221332 53 225 0.0 0.0 0.00 0.00 0.00 91 1002.6
20260505220831 53 225 0.0 0.0 0.00 0.00 0.00 91 1002.7
20260505220331 53 225 0.0 0.0 0.00 0.00 0.00 91 1002.7
20260505215831 53 225 0.0 0.0 0.00 0.00 0.00 91 1002.8
20260505215331 53 225 0.0 0.0 0.00 0.00 0.00 91 1002.8
20260505214832 53 225 0.0 0.0 0.00 0.00 0.00 91 1002.8
20260505214332 53 225 0.0 0.0 0.00 0.00 0.00 91 1002.8
20260505213832 53 225 0.0 0.0 0.00 0.00 0.00 91 1002.8
20260505213332 53 225 0.0 0.0 0.00 0.00 0.00 91 1002.9
20260505212832 53 225 0.0 0.0 0.00 0.00 0.00 91 1003.0
20260505212332 53 225 0.0 0.0 0.00 0.00 0.00 91 1002.9
20260505211832 53 225 0.0 0.0 0.00 0.00 0.00 91 1002.9
20260505211332 52 225 0.0 0.0 0.00 0.00 0.00 91 1003.0
20260505210832 53 225 0.0 0.0 0.00 0.00 0.00 91 1003.1
20260505210332 53 225 0.0 0.0 0.00 0.00 0.00 91 1003.1
20260505205832 52 225 0.0 0.0 0.00 0.00 0.00 90 1003.0
20260505205332 52 225 0.0 0.0 0.00 0.00 0.00 90 1003.0
20260505204832 52 225 0.0 0.0 0.00 0.00 0.00 90 1003.0
20260505204332 53 225 0.0 0.0 0.00 0.00 0.00 90 1002.9
20260505203832 53 225 0.0 0.0 0.00 0.00 0.00 90 1002.9
20260505203332 53 225 0.0 0.0 0.00 0.00 0.00 90 1003.1
20260505202832 53 225 0.0 0.0 0.00 0.00 0.00 90 1003.1
20260505202332 53 225 0.0 0.0 0.00 0.00 0.00 90 1003.2
20260505201832 53 225 0.0 0.0 0.00 0.00 0.00 90 1003.1
20260505201332 53 225 0.0 0.0 0.00 0.00 0.00 90 1003.1
20260505200832 53 225 0.0 0.0 0.00 0.00 0.00 90 1003.1
20260505200332 53 225 0.0 0.0 0.00 0.00 0.00 90 1003.0
20260505195832 53 202 0.0 0.0 0.00 0.00 0.00 90 1003.1
20260505195332 53 202 0.0 0.0 0.00 0.00 0.00 90 1003.2
20260505194832 53 202 0.0 0.0 0.00 0.00 0.00 90 1003.1
20260505194332 53 202 0.0 0.0 0.00 0.00 0.00 90 1003.1
20260505193832 53 202 0.0 0.0 0.00 0.00 0.00 90 1003.0
20260505193332 53 202 0.0 0.0 0.00 0.00 0.00 90 1002.9
20260505192832 53 202 0.0 0.0 0.00 0.00 0.00 90 1003.0
20260505192332 53 202 0.0 0.0 0.00 0.00 0.00 90 1002.9
20260505191832 53 202 0.0 0.0 0.00 0.00 0.00 90 1002.9
20260505191332 54 202 0.0 0.0 0.00 0.00 0.00 90 1002.9
20260505190832 54 202 0.0 0.0 0.00 0.00 0.00 90 1002.8
20260505190332 54 202 0.0 0.0 0.00 0.00 0.00 90 1002.9
20260505185832 54 202 0.0 0.0 0.00 0.00 0.00 90 1002.9
20260505185332 54 202 0.0 0.0 0.00 0.00 0.00 89 1002.8
20260505184832 54 202 0.0 0.0 0.00 0.00 0.00 89 1002.9
20260505184332 54 202 0.0 0.0 0.00 0.00 0.00 89 1003.0
20260505183832 54 202 0.0 0.0 0.00 0.00 0.00 89 1002.9
20260505183332 54 202 0.0 0.0 0.00 0.00 0.00 89 1002.8
20260505182832 55 202 0.0 0.0 0.00 0.00 0.00 89 1002.8
20260505182332 55 202 0.0 0.0 0.00 0.00 0.00 89 1002.8
20260505181832 55 202 0.0 0.0 0.00 0.00 0.00 89 1002.9
20260505181332 55 202 0.0 0.0 0.00 0.00 0.00 89 1002.9
20260505180832 55 202 0.0 0.0 0.00 0.00 0.00 89 1003.0
20260505180332 55 202 0.0 0.0 0.00 0.00 0.00 89 1003.0
20260505175832 55 202 0.0 0.0 0.00 0.00 0.00 89 1002.9
20260505175332 55 202 0.0 0.0 0.00 0.00 0.00 89 1002.9
20260505174832 55 202 0.0 0.0 0.00 0.00 0.00 89 1003.0
20260505174332 55 202 0.0 0.0 0.00 0.00 0.00 89 1002.8
20260505173832 55 202 0.0 0.0 0.00 0.00 0.00 89 1003.0
20260505173332 55 202 0.0 0.0 0.00 0.00 0.00 89 1003.2
20260505172832 55 202 0.0 0.0 0.00 0.00 0.00 89 1003.2
20260505172332 55 202 0.0 0.0 0.00 0.00 0.00 89 1003.2
20260505171832 55 202 0.0 0.0 0.00 0.00 0.00 89 1003.3
20260505171332 55 202 0.0 0.0 0.00 0.00 0.00 89 1003.2
20260505170832 55 202 0.0 0.0 0.00 0.00 0.00 89 1003.2
20260505170332 55 202 0.0 0.0 0.00 0.00 0.00 89 1003.1
20260505165832 55 202 0.0 0.0 0.00 0.00 0.00 88 1003.2
20260505165332 55 202 0.0 0.0 0.00 0.00 0.00 88 1003.3
20260505164832 55 202 0.0 0.0 0.00 0.00 0.00 88 1003.3
20260505164332 55 202 0.0 0.0 0.00 0.00 0.00 88 1003.2
20260505163832 55 202 0.0 0.0 0.00 0.00 0.00 88 1003.3
20260505163332 55 202 0.0 0.0 0.00 0.00 0.00 88 1003.3
20260505162832 55 202 0.0 0.0 0.00 0.00 0.00 88 1003.2
20260505162332 55 202 0.0 0.0 0.00 0.00 0.00 88 1003.2
20260505161832 55 202 0.0 0.0 0.00 0.00 0.00 88 1003.3
20260505161332 55 202 0.0 0.0 0.00 0.00 0.00 88 1003.2
20260505160832 55 202 0.0 0.0 0.00 0.00 0.00 88 1003.3
20260505160332 55 202 0.0 0.0 0.00 0.00 0.00 88 1003.4
20260505153332 56 180 0.0 0.0 0.00 0.00 0.00 88 1003.6
20260505152832 56 180 0.0 0.0 0.00 0.00 0.00 88 1003.5
20260505152332 56 180 0.0 0.0 0.00 0.00 0.00 88 1003.6
20260505151832 56 157 0.0 0.0 0.00 0.00 0.00 88 1003.6
20260505151332 56 157 0.0 0.0 0.00 0.00 0.00 87 1003.6
20260505150832 56 157 0.0 0.0 0.00 0.00 0.00 87 1003.6
20260505150332 56 157 0.0 0.0 0.00 0.00 0.00 87 1003.6
20260505140332 56 112 0.0 0.0 0.00 0.00 0.00 87 1003.9
20260505124833 57 315 0.0 0.0 0.00 0.00 0.00 81 1004.2
20260505124333 57 90 0.0 0.0 0.00 0.00 0.00 79 1004.1
20260505123833 57 90 0.0 0.0 0.00 0.00 0.00 79 1004.1
20260505123333 58 90 0.0 0.0 0.00 0.00 0.00 77 1004.0
20260505122833 59 90 0.0 0.0 0.00 0.00 0.00 75 1004.1
20260505122333 60 112 0.0 0.0 0.00 0.00 0.00 72 1004.1
20260505121833 62 180 0.0 0.0 0.00 0.00 0.00 71 1003.8
20260505121333 63 180 0.0 0.0 0.00 0.00 0.00 69 1003.8
20260505120833 64 180 0.0 0.0 0.00 0.00 0.00 69 1004.0
20260505120333 63 180 0.0 0.0 0.00 0.00 0.00 69 1004.1
20260505115833 63 180 0.0 0.0 0.00 0.00 0.00 69 1004.0
20260505115333 63 180 0.0 0.0 0.00 0.00 0.00 68 1004.1
20260505114833 64 180 0.0 0.0 0.00 0.00 0.00 66 1004.1
20260505114333 65 180 0.0 0.0 0.00 0.00 0.00 66 1004.1
20260505113833 66 180 0.0 0.0 0.00 0.00 0.00 65 1004.2
20260505113333 67 180 0.0 0.0 0.00 0.00 0.00 64 1004.2
20260505112833 67 180 0.0 0.0 0.00 0.00 0.00 64 1004.2
20260505112333 67 180 0.0 0.0 0.00 0.00 0.00 64 1004.2
20260505111833 68 180 0.0 0.0 0.00 0.00 0.00 64 1004.4
20260505111333 67 180 0.0 0.0 0.00 0.00 0.00 64 1004.3
20260505110833 67 180 0.0 0.0 0.00 0.00 0.00 64 1004.3
20260505110333 67 180 0.0 0.0 0.00 0.00 0.00 64 1004.4
20260505101833 67 180 0.0 0.0 0.00 0.00 0.00 64 1004.7
20260505101333 67 202 0.0 0.0 0.00 0.00 0.00 64 1004.8
20260505100943 68 112 0.0 0.0 0.00 0.00 0.00 63 1004.9
20260505100333 68 112 0.0 0.0 0.00 0.00 0.00 63 1004.9
20260505095833 68 112 0.0 0.0 0.00 0.00 0.00 63 1004.9
20260505095333 68 90 0.0 0.0 0.00 0.00 0.00 63 1004.9
20260505094833 68 90 0.0 0.0 0.00 0.00 0.00 64 1004.9
20260505094333 68 90 0.0 0.0 0.00 0.00 0.00 64 1004.8
20260505093833 68 90 0.0 0.0 0.00 0.00 0.00 65 1004.8
20260505093333 67 90 0.0 0.0 0.00 0.00 0.00 66 1004.9
20260505092833 67 90 0.0 0.0 0.00 0.00 0.00 67 1005.0
20260505092333 66 90 0.0 0.0 0.00 0.00 0.00 67 1005.0
20260505091833 66 90 0.0 0.0 0.00 0.00 0.00 68 1005.0
20260505091333 65 90 0.0 0.0 0.00 0.00 0.00 69 1005.0
20260505090833 65 90 0.0 0.0 0.00 0.00 0.00 67 1005.0
20260505090333 66 112 0.0 0.0 0.00 0.00 0.00 68 1005.2
20260505085833 66 90 0.0 0.0 0.00 0.00 0.00 68 1005.2
20260505085333 66 90 0.0 0.0 0.00 0.00 0.00 67 1005.2
20260505084833 67 90 0.0 0.0 0.00 0.00 0.00 67 1005.1
20260505084333 66 90 0.0 0.0 0.00 0.00 0.00 70 1005.1
20260505083833 66 90 0.0 0.0 0.00 0.00 0.00 67 1005.0
20260505083333 66 112 0.0 0.0 0.00 0.00 0.00 67 1005.1
20260505082833 67 112 0.0 0.0 0.00 0.00 0.00 66 1005.1
20260505082333 67 90 0.0 0.0 0.00 0.00 0.00 66 1005.3
20260505081833 68 112 0.0 0.0 0.00 0.00 0.00 67 1005.3
20260505081333 68 112 0.0 0.0 0.00 0.00 0.00 68 1005.3
20260505080833 68 112 0.0 0.0 0.00 0.00 0.00 67 1005.4
20260505080333 70 112 0.0 0.0 0.00 0.00 0.00 65 1005.4
20260505075833 70 90 0.0 0.0 0.00 0.00 0.00 65 1005.4
20260505075333 71 90 0.0 0.0 0.00 0.00 0.00 65 1005.4
20260505074833 72 90 0.0 0.0 0.00 0.00 0.00 67 1005.5
20260505074333 72 90 0.0 0.0 0.00 0.00 0.00 69 1005.5
20260505073833 71 112 0.0 0.0 0.00 0.00 0.00 73 1005.6
20260505073334 66 112 0.0 0.0 0.00 0.00 0.00 82 1005.6
20260505072833 64 112 0.0 0.0 0.00 0.00 0.00 86 1005.7
20260505072333 62 112 0.0 0.0 0.00 0.00 0.00 87 1005.8
20260505071833 61 112 0.0 0.0 0.00 0.00 0.00 87 1005.8
20260505071333 60 112 0.0 0.0 0.00 0.00 0.00 88 1005.8
20260505070833 60 112 0.0 0.0 0.00 0.00 0.00 89 1005.8
20260505070333 58 112 0.0 0.0 0.00 0.00 0.00 91 1005.9
20260505065833 58 112 0.0 0.0 0.00 0.00 0.00 91 1005.9
20260505065333 57 112 0.0 0.0 0.00 0.00 0.00 91 1005.9
20260505064833 56 112 0.0 0.0 0.00 0.00 0.00 91 1005.9
20260505064333 55 112 0.0 0.0 0.00 0.00 0.00 92 1005.9
20260505063833 55 112 0.0 0.0 0.00 0.00 0.00 92 1005.9
20260505063333 55 112 0.0 0.0 0.00 0.00 0.00 92 1005.9
20260505062833 55 112 0.0 0.0 0.00 0.00 0.00 91 1006.0
20260505062333 55 112 0.0 0.0 0.00 0.00 0.00 92 1005.9
20260505061833 55 270 0.0 0.0 0.00 0.00 0.00 92 1006.0
20260505061333 55 270 0.0 0.0 0.00 0.00 0.00 92 1006.0
20260505060833 55 270 0.0 0.0 0.00 0.00 0.00 92 1006.0
20260505060333 55 270 0.0 0.0 0.00 0.00 0.00 92 1006.1
20260505055833 55 270 0.0 0.0 0.00 0.00 0.00 92 1006.0
20260505055333 55 270 0.0 0.0 0.00 0.00 0.00 92 1006.0
20260505054833 54 270 0.0 0.0 0.00 0.00 0.00 92 1006.0
20260505054333 54 270 0.0 0.0 0.00 0.00 0.00 92 1006.0
20260505053833 53 270 0.0 0.0 0.00 0.00 0.00 92 1005.9
20260505053333 53 270 0.0 0.0 0.00 0.00 0.00 92 1005.9
20260505052833 53 270 0.0 0.0 0.00 0.00 0.00 92 1006.0
20260505052333 53 270 0.0 0.0 0.00 0.00 0.00 92 1005.9
20260505051833 52 270 0.0 0.0 0.00 0.00 0.00 92 1005.8
20260505051333 52 270 0.0 0.0 0.00 0.00 0.00 92 1005.9
20260505050833 52 270 0.0 0.0 0.00 0.00 0.00 92 1005.8
20260505050333 52 270 0.0 0.0 0.00 0.00 0.00 92 1005.9